User: anonymous   Login
Location: Ostrava
(49.8330°N, 18.2830°E)
Time: 22:36:15
(UTC+01:00)
Language:

NOAA 19 - Orbit

View from above orbital plane
View from above orbital plane
View from above satellite
View from above satellite

Ground track
Ground track

The orbit data is extracted from the following two-line orbital elements,

1 33591U 09005A   14331.50140858  .00000288  00000-0  18232-3 0  4787
2 33591 098.9647 276.1925 0014379 023.0039 085.2261 14.11815469299036
Epoch (UTC): 27 November 2014 12:02:01
Eccentricity: 0.0014379
inclination: 98.9647°
perigee height: 843 km
apogee height: 863 km
right ascension of ascending node: 276.1925°
argument of perigee: 23.0039°
revolutions per day: 14.11815469
mean anomaly at epoch: 85.2261°
orbit number at epoch: 29903

The dashed part of the orbit path shows where the satellite is in the earth's shadow,  

DLR